Torna al catalogo

STARLINK-31411

AttivoComunicazioniVLEO
NORAD 59182·PAYLOAD·🇺🇸 United States

Lanciato Mar 10, 2024 da Cape Canaveral Space Force Station

Loading…

Prossimi Passaggi (prossime 24 ore)

TLE

AggiornatoSource: CelesTrak SupGP

Epoca: Sep 14, 2026, 14:29 UTC

1 59182C 24045E   26257.60395833  .00010908  00000+0  39509-3 0  2572
2 59182  43.0011 105.3697 0001438 262.4738 207.1707 15.27571324    17

Traccia STARLINK-31411 in tempo reale con AllMySat

Download on the App Store